STARLINK-5071, 55402

Orbit data source: Space-Track

STARLINK-5071, 55402 is a payload satellite owned by SpaceX/Seattle (US) in LEO that was launched on Tue, 31 Jan 2023 UTC via an FALCON 9 launch vehicle from the Air Force Western Test Range (AFWTR). Payload-class satellites include a variety of spacecraft equipped with specific instruments for various scientific and technological missions. These include communications satellites like Starlink; space stations such as the ISS; scientific satellites like the Hubble; Earth observation satellites from companies like Planet Labs, Umbra, and HawkEye 360; GPS; miniature CubeSats for education and research; and military/defense satellites.

Loading next visibility...
Identifier
55402, 2023-014M
Orbit
LEO
Country
Flag of USUS
Related business
Manufacturer
SpaceX/Seattle
Mission
Operational Commercial Communications
Bus & Motor
STARLINK, Unknown motor
Mass
305 kg wet, ~290 kg dry
Launch date (UTC)
2023-01-31 (3 years ago)
Launch vehicle
FALCON 9
Launch site
Air Force Western Test Range (AFWTR)
Object type
Payload
Rocket body
Debris
Shape & HBR
Box + 1 Pan, 10.1 m
Radar Cross Section
13.562 m², Large (>1 m²)

Expand to show TLE details & history
Last TLE update: 2 days ago

TLE from 2 days ago
0 STARLINK-5071
1 55402U 23014M   26171.36518227 -.00000265  00000-0 -14413-4 0  9999
2 55402  69.9991 165.6359 0003140 269.0472  91.0327 14.98331853187434
Epoch: 2026-06-20T08:45Z
TLE epoch observation values (Epoch: 2026-06-20T08:45:51.748Z)
Latitude
-0.00003°
Longitude
125.58942°
Altitude
574.514 km
Speed
7.574 km/s
True Right ascension
11h 02m 32s
True Declination
0° 00' 00"
Sunlit
Object was in daylight at epoch
Visualization orbit readout
Latitude
Unknown
Longitude
Unknown
Altitude
Unknown
Speed
Unknown
Apparent Right ascension
Unknown
Apparent Declination
Unknown
Sunlit
N/A
Visualization observer readout
Local Sidereal Time
23:08:20
Azimuth
Unknown
Elevation
Unknown
Doppler factor
Unknown
Orbital elements
Apogee altitude
572.18 km
Perigee altitude
567.817 km
Semi-major axis
6,948.135 km
Eccentricity
0.00031
Inclination
69.9991°
RAAN
165.6359°
Arg. of periapsis
269.0472°
True anomaly
91.06868°
Mean anomaly
91.0327°
Eccentric anomaly
91.05069°
Mean motion
3.74749 °/min
Orbital period
96.06 mins
BSTAR
-0.000014413
Loading maneuver chart data...
Computing Atmospheric mass density...

Documentation

Showing up to 5 results
|